{"data":{"norad_id":51949,"intl_designator":"2022-023D","name":"2022-023D","alt_names":[],"object_type":"PAYLOAD","status":"ACTIVE","operator":null,"country":"PRC","launch_date":"2022-03-05","launch_site_code":"XICLF","launch_vehicle":null,"mission":null,"orbit_class":"UNKNOWN","rcs_meters":null,"size_class":null,"mass_kg":null,"dimensions":null,"purposes":[],"wikipedia_slug":null,"has_3d_model":false,"image_url":null,"decayed_at":null,"tle_current":{"epoch":"2026-05-25T03:09:39.845952Z","epoch_age_seconds":74148,"freshness":"FRESH","line1":"1 51949U 22023D   26145.13171118  .00019088  00000+0  77638-3 0  9997","line2":"2 51949  63.4578 350.0923 0122147 355.9833   4.0286 15.17958921234218","mean_motion":15.17958921,"eccentricity":0.0122147,"inclination_deg":63.4578,"raan_deg":350.0923,"arg_perigee_deg":355.9833,"mean_anomaly_deg":4.0286,"bstar":0.00077638,"rev_number":23421,"period_min":94.864227225026,"perigee_km":427.84904414264,"apogee_km":596.17120429908,"semimajor_km":6890.1471242209,"source":"CELESTRAK","updated_at":"2026-05-25T13:37:57.569913Z"}}}